Tracking 25710 objects as of 6-Jul-2022
HD Live streaming from Space Station
objects crossing your sky now

FENGYUN 1C DEB

Track FENGYUN 1C DEB now!
10-day predictions


NORAD ID: 37060
Int'l Code: 1999-025EEU
Perigee: 847.6 km
Apogee: 966.5 km
Inclination: 99.2 °
Period: 103.0 minutes
Semi major axis: 7278 km
RCS: 0.0093 m2 (small)
Launch date: May 10, 1999
Source: People's Republic of China (PRC)
Launch site: Taiyaun Space Center, China (TSC)

Note: This is SATELLITE DEBRIS
aabbcc
Your satellite tracking list
Your tracking list is empty




NASA's NSSDC Master Catalog

Two Line Element Set (TLE):
1 37060U 99025EEU 22184.95132304  .00000323  00000-0  25118-3 0  9993
2 37060  99.2488 223.9812 0081715 204.2670 155.4635 13.98239478451157
Source of the keplerian elements: AFSPC